Cosmos 1140 Rocket - Orbit

View from above orbital plane
View from above orbital plane
View from above satellite
View from above satellite

Ground track
Ground track

The orbit data is extracted from the following two-line orbital elements,

1 11574U 79089B   13143.18756509  .00000267  00000-0  92848-4 0  4607
2 11574 074.0716 080.8243 0016110 359.9576 102.6386 14.40002435763200
Epoch (UTC): 23 May 2013 04:30:05
Eccentricity: 0.0016110
inclination: 74.0716°
perigee height: 747 km
apogee height: 770 km
right ascension of ascending node: 80.8243°
argument of perigee: 359.9576°
revolutions per day: 14.40002435
mean anomaly at epoch: 102.6386°
orbit number at epoch: 76320

The dashed part of the orbit path shows where the satellite is in the earth's shadow,  

Developed and maintained by Chris Peat, Heavens-Above GmbH. Please read the updated FAQ before sending e-mail. Imprint. DLR